Location: Newark
(53.3469°N, 7.1606°E)
Time: 13:26:02
(UTC+00:00)

N. Korean satellite - Pass Details

Date: 21 November 2019
Orbit: 456 x 506 km, 97.2° (Epoch: 09 December)

Event Time Altitude Azimuth Distance (km) Brightness Sun altitude
Rises 05:14:05 0° 17° (NNE) 2,623 10.4 -16.2°
Reaches altitude 10° 05:16:15 10° 23° (NNE) 1,729 9.5 -15.9°
Maximum altitude 05:19:53 49° 99° (E) 657 7.6 -15.4°
Drops below altitude 10° 05:23:26 10° 176° (S) 1,695 9.5 -14.9°
Sets 05:25:32 0° 182° (S) 2,565 10.4 -14.6°
